KF5CFW Weather Reports


Display with metric or nautical units.
time (UTC)temp
F
wind
direction
speed
MPH
gust
MPH
rain 1hr
in
rain 24hr
in
rain mn
in
humidity
%
barometer
mb
20260510200028 73 30 0.0 1.0 0.00 0.00 0.00 38 1015.2
20260510194542 71 15 0.0 1.0 0.00 0.00 0.00 28 1015.6
20260510193026 71 89 0.0 1.0 0.00 0.00 0.00 20 1015.7
20260510191525 70 108 0.0 1.0 0.00 0.00 0.00 18 1015.5
20260510190039 70 107 0.0 1.0 0.00 0.00 0.00 15 1015.3
20260510184524 70 20 0.0 1.0 0.00 0.00 0.00 12 1015.3
20260510183025 71 17 0.0 2.0 0.00 0.00 0.00 24 1015.1
20260510181524 72 15 0.0 1.0 0.00 0.00 0.00 31 1015.0
20260510180027 71 82 0.0 2.0 0.00 0.00 0.00 15 1014.7
20260510174522 70 74 0.0 2.0 0.00 0.00 0.00 43 1014.8
20260510173022 71 64 0.0 2.0 0.00 0.00 0.00 54 1015.1
20260510171522 74 356 2.0 4.0 0.00 0.00 0.00 59 1015.6
20260510170017 81 181 0.0 0.0 0.00 0.00 0.00 57 1014.6
20260510164513 83 205 0.0 1.0 0.00 0.00 0.00 56 1014.0
20260510163012 83 203 0.0 3.0 0.00 0.00 0.00 56 1013.0
20260510161520 82 158 0.0 2.0 0.00 0.00 0.00 56 1012.5
20260510160005 80 91 0.0 3.0 0.00 0.00 0.00 56 1012.2
20260510154604 79 91 0.0 2.0 0.00 0.00 0.00 54 1012.2
20260510153056 77 162 1.0 3.0 0.00 0.00 0.00 56 1012.0
20260510151557 76 169 0.0 2.0 0.00 0.00 0.00 56 1012.1
20260510150122 75 104 0.0 2.0 0.00 0.00 0.00 56 1012.4
20260510144618 74 164 0.0 2.0 0.00 0.00 0.00 56 1012.7
20260510143057 72 153 0.0 2.0 0.00 0.00 0.00 55 1012.8
20260510141554 71 82 0.0 2.0 0.00 0.00 0.00 55 1012.9
20260510140054 71 150 0.0 1.0 0.00 0.00 0.00 55 1013.5
20260510134605 71 111 0.0 0.0 0.00 0.00 0.00 52 1013.9
20260510133050 70 155 0.0 0.0 0.00 0.00 0.00 51 1013.5
20260510131548 70 155 0.0 1.0 0.00 0.00 0.00 53 1013.2
20260510130047 70 161 0.0 1.0 0.00 0.00 0.00 49 1013.0
20260510124548 70 89 0.0 1.0 0.00 0.00 0.00 49 1012.9
20260510123144 69 71 0.0 1.0 0.00 0.00 0.00 49 1012.8
20260510121544 69 138 0.0 1.0 0.00 0.00 0.00 50 1012.5
20260510120040 70 130 0.0 1.0 0.00 0.00 0.00 51 1012.4
20260510114602 70 43 0.0 1.0 0.00 0.00 0.00 51 1012.3
20260510113051 70 128 0.0 1.0 0.00 0.00 0.00 53 1012.3
20260510111536 71 75 0.0 1.0 0.00 0.00 0.00 53 1012.3
20260510110037 71 179 0.0 1.0 0.00 0.00 0.00 54 1012.0
20260510104530 72 204 0.0 1.0 0.00 0.00 0.00 54 1012.0
20260510103030 72 68 0.0 2.0 0.00 0.00 0.00 53 1012.0
20260510101528 72 67 0.0 1.0 0.00 0.00 0.00 50 1012.0
20260510100031 73 39 0.0 7.0 0.00 0.00 0.00 49 1012.0
20260510094530 75 155 0.0 0.0 0.00 0.00 0.00 10 1011.5
20260510093019 74 155 0.0 0.0 0.00 0.00 0.00 9 1011.5
20260510091516 74 155 0.0 0.0 0.00 0.00 0.00 11 1010.8
20260510090013 74 155 0.0 0.0 0.00 0.00 0.00 14 1010.3
20260510084512 74 155 0.0 0.0 0.00 0.00 0.00 17 1010.2
20260510083015 73 155 0.0 0.0 0.00 0.00 0.00 14 1010.2
20260510081508 74 155 0.0 0.0 0.00 0.00 0.00 24 1009.4
20260510080005 74 155 0.0 0.0 0.00 0.00 0.00 32 1009.0
20260510074502 75 155 0.0 0.0 0.00 0.00 0.00 37 1009.0
20260510073100 75 155 0.0 0.0 0.00 0.00 0.00 39 1008.8
20260510071604 75 155 0.0 0.0 0.00 0.00 0.00 43 1008.7
20260510070109 76 155 0.0 0.0 0.00 0.00 0.00 48 1009.3
20260510064601 76 155 0.0 1.0 0.00 0.00 0.00 49 1009.6
20260510063100 75 338 0.0 0.0 0.00 0.00 0.00 51 1010.1
20260510061552 76 155 0.0 1.0 0.00 0.00 0.00 54 1008.6
20260510060049 76 97 0.0 1.0 0.00 0.00 0.00 56 1007.9
20260510054551 76 96 0.0 1.0 0.00 0.00 0.00 57 1007.7
20260510053041 77 91 0.0 0.0 0.00 0.00 0.00 57 1007.9
20260510051539 77 117 0.0 1.0 0.00 0.00 0.00 57 1007.5
20260510050040 77 162 0.0 1.0 0.00 0.00 0.00 57 1007.2
20260510044527 77 124 0.0 1.0 0.00 0.00 0.00 58 1007.1
20260510043022 77 112 0.0 1.0 0.00 0.00 0.00 58 1007.4
20260510041518 78 132 0.0 1.0 0.00 0.00 0.00 59 1007.5
20260510040013 78 79 0.0 0.0 0.00 0.00 0.00 59 1007.7
20260510034509 78 134 0.0 1.0 0.00 0.00 0.00 59 1007.7
20260510033004 78 170 0.0 1.0 0.00 0.00 0.00 59 1007.8
20260510031629 78 153 0.0 0.0 0.00 0.00 0.00 58 1007.9
20260510030100 79 154 0.0 0.0 0.00 0.00 0.00 58 1007.8
20260510024554 79 154 0.0 0.0 0.00 0.00 0.00 57 1007.5
20260510023054 80 154 0.0 0.0 0.00 0.00 0.00 56 1007.5
20260510021550 80 154 0.0 0.0 0.00 0.00 0.00 56 1007.3
20260510020047 81 153 0.0 0.0 0.00 0.00 0.00 55 1007.1
20260510014541 81 208 0.0 0.0 0.00 0.00 0.00 55 1006.9
20260510013040 82 207 0.0 0.0 0.00 0.00 0.00 55 1006.7
20260510011534 82 226 0.0 1.0 0.00 0.00 0.00 57 1006.6
20260510010027 82 226 0.0 0.0 0.00 0.00 0.00 52 1006.4
20260510004522 83 226 0.0 0.0 0.00 0.00 0.00 51 1006.2
20260510003018 84 226 0.0 0.0 0.00 0.00 0.00 51 1006.2
20260510001521 85 226 0.0 0.0 0.00 0.00 0.00 50 1006.3
20260510000010 85 226 0.0 0.0 0.00 0.00 0.00 47 1006.3
20260509234508 86 226 0.0 1.0 0.00 0.00 0.00 47 1006.3
20260509233000 87 226 0.0 0.0 0.00 0.00 0.00 47 1006.4
20260509231557 88 226 0.0 1.0 0.00 0.00 0.00 46 1006.3
20260509230054 89 226 0.0 0.0 0.00 0.00 0.00 46 1006.4
20260509224548 90 226 0.0 0.0 0.00 0.00 0.00 43 1006.3
20260509223052 91 226 0.0 0.0 0.00 0.00 0.00 42 1006.4
20260509221540 93 150 0.0 1.0 0.00 0.00 0.00 41 1006.3
20260509220043 95 72 0.0 0.0 0.00 0.00 0.00 42 1006.4
20260509214537 94 72 0.0 0.0 0.00 0.00 0.00 42 1006.5
20260509213027 94 11 0.0 1.0 0.00 0.00 0.00 41 1006.7
20260509211525 95 350 0.0 1.0 0.00 0.00 0.00 43 1006.8
20260509210018 95 224 0.0 0.0 0.00 0.00 0.00 39 1007.0
20260509204524 94 136 0.0 1.0 0.00 0.00 0.00 37 1007.3
20260509203009 93 23 0.0 1.0 0.00 0.00 0.00 37 1007.6
20260509201504 94 15 0.0 1.0 0.00 0.00 0.00 36 1007.7